Location: Bełchatów
(51.3638°N, 19.3624°E)
Time: 04:40:42
(UTC+01:00)

ISS - Visible Passes

Search period start: 24 November 2017 00:00
Search period end: 04 December 2017 00:00
Orbit: 402 x 407 km, 51.6° (Epoch: 24 November)

Date Brightness Start Highest point End Pass type
(mag) Time Alt. Az. Time Alt. Az. Time Alt. Az.
28 Nov -1.2 18:17:05 10° SSW 18:17:50 15° SSW 18:17:50 15° SSW visible
29 Nov -1.9 17:25:28 10° S 17:27:42 17° SE 17:27:45 17° SE visible
30 Nov -1.3 16:34:44 10° SSE 16:35:34 11° SE 16:36:25 10° ESE visible
30 Nov -2.2 18:08:16 10° SW 18:10:15 30° SSW 18:10:15 30° SSW visible
01 Dec -2.6 17:16:13 10° SSW 17:19:07 29° SSE 17:20:01 25° ESE visible
01 Dec -0.6 18:52:04 10° WSW 18:52:40 15° WSW 18:52:40 15° WSW visible
02 Dec -1.9 16:24:26 10° SSW 16:26:53 20° SE 16:29:22 10° E visible
02 Dec -3.2 17:59:42 10° WSW 18:02:23 52° SW 18:02:23 52° SW visible
03 Dec -3.3 17:07:25 10° SW 17:10:36 48° SSE 17:12:04 27° E visible
03 Dec -1.0 18:43:42 10° W 18:44:42 18° W 18:44:42 18° W visible
